SHIYAN 12 02 (SY-12 02)

导读 | 豆包AI

SHIYAN 12 02(SY-12 02)中文名称试验十二号卫星02星,是中国研制发射的试验卫星。该卫星于2021年12月23日在文昌发射场由长征七号改运载火箭成功发射,顺利进入预定轨道,发射任务取得圆满成功。主要用于开展空间技术试验验证,推动我国航天技术领域的创新探索,是我国航天试验任务的重要组成部分。

基本信息
目录编号:
50322
目录名称:
SHIYAN 12 02 (SY-12 02)
国际标识:
2021-129B
轨道中心:
EARTH
卫星名称:
SHIYAN 12 02 (SY-12 02)
卫星全名:
--
卫星状态:
在轨 (已飞行1589 天)
发射日期:
2021-12-23 UTC
国别 :
中国 (CN)
星等 :
--
轨道信息
数据来源 国际轨道数据 AOE轨道数据
星历时间 2026-04-29T23:23:38+0800
21小时前
查看轨道信息
2026-04-30T06:00:00+0800
14小时前
查看轨道信息
半长轴 42108.083km 42108.111km
偏心率 0.0001077 0.0001185
轨道倾角 3.551° 3.552°
近地点辐角 26.660° 33.999°
升交点赤经 80.558° 80.557°
平近点角 32.584° 124.808°
近地点 35725.41km 35724.984km
远地点 35734.482km 35734.964km
周期 1433.204分钟 1433.205分钟
每日圈数 1.004742 1.004741
详细信息
使用方式:
暂无
2D轨道图
3D轨道图
轨道高度分析图
轨道倾角分析图
轨道综合分析图
查看轨道综合分析图